DECAYED

IRIDIUM 33 DEB, 34102 (Decayed)

Orbit data source: Space-Track

IRIDIUM 33 DEB, 34102 was space debris in LEO originally from a launch on Sun, 14 Sep 1997 UTC launched from the Tyuratam Missile And Space Complex (TTMTR). The debris from Iridium 33, an American commercial communications satellite, has been tracked extensively since its accidental collision with the defunct Russian satellite Cosmos 2251 in 2009. This event, occurring at high speed in low Earth orbit (LEO), generated thousands of pieces of space debris, significantly increasing the risk of further collisions. The Iridium 33 debris cloud has impacted space traffic management and orbital debris mitigation strategies, making it a subject of ongoing study in space situational awareness.

Not visible in the next 10 days
Identifier
34102, 1997-051DM
Orbit
Decayed
Country
Flag of USUS
Related business
Manufacturer
Unknown
Mission
Decayed spacecraft
Bus & Motor
Unknown
Mass
Unknown
Launch date (UTC)
1997-09-14 (29 years ago)
Launch vehicle
Unknown
Launch site
Tyuratam Missile And Space Complex (TTMTR)
Object type
Payload
Rocket body
Debris
Shape & HBR
Unknown shape, 0.071 m
Radar Cross Section
Medium (>0.1 m² and <1 m²)

Expand to show TLE details & history
Last TLE update: 2 years ago

TLE from 2 years ago
0 IRIDIUM 33 DEB
1 34102U 97051DM  25026.99717188  .46664269  00000-0  75285-1 0  9998
2 34102  86.2888 241.2547 0015856  74.3581 285.9450 15.94392565828066
Epoch: 2025-01-26T23:55Z
TLE epoch observation values (Epoch: 2025-01-26T23:55:55.650Z)
Latitude
-0.00007°
Longitude
115.74921°
Altitude
290.391 km
Speed
7.735 km/s
True Right ascension
16h 05m 01s
True Declination
0° 00' 00"
Sunlit
Object was in daylight at epoch
Visualization orbit readout
Latitude
Unknown
Longitude
Unknown
Altitude
Unknown
Speed
Unknown
Apparent Right ascension
Unknown
Apparent Declination
Unknown
Sunlit
N/A
Visualization observer readout
Local Sidereal Time
13:42:58
Azimuth
Unknown
Elevation
Unknown
Doppler factor
Unknown
Orbital elements
Apogee altitude
297.32 km
Perigee altitude
276.184 km
Semi-major axis
6,664.889 km
Eccentricity
0.00159
Inclination
86.2888°
RAAN
241.2547°
Arg. of periapsis
74.3581°
True anomaly
285.7702°
Mean anomaly
285.945°
Eccentric anomaly
285.85761°
Mean motion
3.98891 °/min
Orbital period
90.25 mins
BSTAR
0.075285
Loading maneuver chart data...
Computing Atmospheric mass density...

Documentation

Showing up to 5 results
|